COSMOS 2433 (720)

Last updated on Jan. 20, 2021, 6:22 a.m. UTC

1 32275U 07052A   21019.27959497 -.00000050  00000-0  00000-0 0  9994
2 32275  66.0372  21.7423 0005350 258.1319 105.2742  2.13104236103014
UTC
Height (km)
Latitude
Longitude
Inclination
Orbital Period
UTC large
Height (km)
Speed (km/s)
/
Latitude / Longitude
Inclination (degrees)
Orbital Period (minutes)
Azimuth
Elevation
Range (km)
Doppler Factor
iOS Compass Heading
iOS Angle

Next 30 passes for location: Hong Kong

Rise time Rise Azimuth (degrees) Set time Set Azimuth (degrees) Duration Max altitude (degrees)

No matching passes for this satellites